Location: Hradec Kralove
(50.2170°N, 15.8330°E)
Time: 11:53:18
(UTC+02:00)

Explorer 7 - Pass Details

Date: 28 January 2023
Orbit: 478 x 657 km, 50.3° (Epoch: 26 March)

Event Time Altitude Azimuth Distance (km) Brightness Sun altitude
Rises 18:57:31 0° 285° (WNW) 2,915 11.8 -21.4°
Reaches altitude 10° 18:59:50 10° 280° (W) 2,028 10.8 -21.8°
Maximum altitude 19:04:24 52° 205° (SSW) 811 7.7 -22.5°
Enters shadow 19:05:41 40° 157° (SSE) 971 7.8 -22.7°
Drops below altitude 10° 19:09:03 10° 130° (SE) 2,072 - -23.3°
Sets 19:11:27 0° 125° (SE) 2,984 - -23.6°
